Regional Weather Roundup
Issued by NWS Portland, ME

Home | Current Version | Previous Version | Text Only | Print | Product List | Glossary On
Versions: 1 2 3 4 5 6 7 8 9 10 11 12 13 14 15 16 17 18 19 20 21 22 23 24 25 26 27 28 29 30 31 32 33 34 35 36 37 38 39 40 41 42 43 44 45 46 47 48 49 50
000
ASUS41 KGYX 010505
RWRGYX
WEATHER ROUNDUP FOR MAINE AND NEW HAMPSHIRE
NATIONAL WEATHER SERVICE GRAY ME
100 AM EDT FRI AUG 01 2014

MEZ002-005-006-010-012-015-018-020-021-024-026-027-029-010600-
MAINE

CITY           SKY/WX    TMP DP  RH WIND       PRES   REMARKS
PORTLAND       CLOUDY    66  61  84 CALM      30.15S
SANFORD        PTCLDY    63  59  88 SW3       30.17R
BAR HARBOR     MOCLDY    63  63 100 S7        30.17R
WISCASSET      MOCLDY    62  60  93 CALM      30.17R
ROCKLAND       PTCLDY    64  63  94 SW3       30.15R
FRYEBURG       CLEAR     56  54  93 CALM      30.17R
LEWISTONAUBURN PTCLDY    57  55  94 CALM      30.15S
AUGUSTA        CLEAR     61  60  97 CALM      30.16R
WATERVILLE     CLEAR     61  57  88 CALM      30.11S
BANGOR         CLOUDY    64  61  90 SW6       30.16R
GREENVILLE       N/A     59  58  96 CALM      30.15R
MILLINOCKET    CLEAR     61  59  93 CALM      30.16R
HOULTON        CLEAR     61  57  87 S6        30.13S
PRESQUE ISLE   CLEAR     57  52  82 CALM      30.14R
FRENCHVILLE    FOG       56  56 100 SW5       30.12R VSB 1/2
CARIBOU        CLEAR     59  57  93 CALM      30.12R
$$

NHZ002-005-008-009-011-012-014-010600-
NEW HAMPSHIRE

CITY           SKY/WX    TMP DP  RH WIND       PRES   REMARKS
PORTSMOUTH     PTCLDY    64  62  95 S3        30.16R
ROCHESTER      CLOUDY    64  62  93 CALM      30.16S FOG
NASHUA         CLEAR     64  64 100 CALM      30.17R
MANCHESTER     MOCLDY    65  63  93 CALM      30.16R FOG
CONCORD        CLOUDY    64  63  96 CALM      30.17R FOG
LACONIA          N/A     64  59  82 SW5       30.15S
PLYMOUTH       CLOUDY    55  54  96 CALM      30.16R FOG
BERLIN         FOG       55  55 100 CALM      30.17R VSB 1/4
WHITEFIELD     PTCLDY    51  49  92 CALM      30.16S
JAFFREY        PTCLDY    59  58  96 CALM      30.20R FOG
LEBANON        CLEAR     60  57  89 S3        30.15R
MT WASHINGTON  PTCLDY    44  42  95 W30         N/A
$$

VTZ005-007-008-010600-
VERMONT

CITY           SKY/WX    TMP DP  RH WIND       PRES   REMARKS
ST JOHNSBURY     N/A     56  55  97 MISG      30.14R
MONTPELIER     MOCLDY    57  56  96 CALM      30.18S
BURLINGTON     PTCLDY    64  58  80 S6        30.11R
$$

MAZ007-012-024-CTZ003-RIZ002-NYZ038-NYZ072-010600-
SOUTHERN NEW ENGLAND AND NY

CITY           SKY/WX    TMP DP  RH WIND       PRES   REMARKS
BOSTON         PTCLDY    69  61  75 SW10      30.17S
WORCESTER      CLEAR     64  61  90 SW10      30.19S
NANTUCKET      MOCLDY    63  62  97 S6        30.20S
PROVIDENCE     MOCLDY    66  62  87 S3        30.19S
HARTFORD       PTCLDY    68  61  78 S7        30.16R
ALBANY         PTCLDY    63  62  97 CALM      30.14S
NEW YORK CITY  PTCLDY    75  64  68 S6        30.14R
$$

ANZ081-ANZ082-ANZ150-NHZ014-MEZ023>029-010600-
COASTAL MARINE OBSERVATIONS

STATION/POSITION TIME  TEMP    WIND        PRES    WAVE
                       AIR SEA DIR/SP/G            HT/PER
                 (UTC) (F)     (DEG/KT/KT) (MB)    (FT/S)
MOUNT DESERT ROC 0400   60                 1021.5R
MATINICUS ROCK   0400          190/ 18/ 18 1020.7R
PORTLAND WX BUOY 0500   66 63  230/  8/ 10 1020.7F   3/ 8
WELLS            0500   64 58  230/  3/  4 1020.4S
ISLE OF SHOALS   0400   67     220/  9/  9 1020.8R
JEFFREYS LEDGE   0400      64                N/A     3/ 9
CASHES LEDGE BUO 0500   69 67  230/ 14/ 16 1020.8S   4/ 8
$$

.............KEY..............
   WCI - WIND CHILL
   TC  - TEMPERATURE IN CELSIUS
   VSB - VISIBILITY IN MILES
   HX  - HEAT INDEX
   FAIR- INDICATES FEW OR NO CLOUDS BELOW 12,000 FT, WITH NO
         SIGNIFICANT WEATHER AND/OR OBSTRUCTIONS TO VISIBILITY.





USA.gov is the U.S. government's official web portal to all federal, state and local government web resources and services.